EFHK

Helsinki/Vantaa

Airport
ICAO code
EFHK
Summary
ICAO Region
EUR
ICAO Territory
Location

Helsinki, Finland,

Elevation
179 ft
Coordinates
60° 19' 2" N , 24° 57' 48" E
KCC
Metar
Observation
EFHK 271550Z 05009KT 8000 FEW003 BKN004 M04/M05 Q1030 NOSIG
Station
Helsinki-Vantaa
Date/Time
2022-11-27 15:50:00
Wind direction
50°
Wind speed
09 kts
Lowest cloud amount
few clouds
Temperature
-4°C
Dew point
-5°C
Humidity
92%
QNH
1030 hPa
Weather condition
n/a

Description

International airport serving capital city of Finland.

Climatology

Humid Continental climate (Köppen climate classification Dfb) - Variable weather patterns and a large seasonal temperature variance. Summers are often warm and humid with frequent thunderstorms and winters can be very cold with frequent snowfall and persistent snow cover.

Runways

Designator Length Width Surface Rops
15/33 2901 60 ASP Yes/Yes
04L/22R 3060 60 ASP Yes/Yes
04R/22L 3440 60 ASP Yes/Yes

SKYbrary Partners:

Safety knowledge contributed by: